Regional Weather Roundup
Issued by NWS

Home | Current Version | Previous Version | Graphics & Text | Print | Product List | Glossary On
Versions: 1 2 3 4 5 6 7 8 9 10 11 12 13 14 15 16 17 18 19 20 21 22 23 24 25 26 27 28 29 30 31 32 33 34 35 36 37 38 39 40 41 42 43 44 45 46 47 48 49 50
000
ASUS43 KMKX 291011
RWRWI

WISCONSIN REGIONAL WEATHER ROUNDUP
NATIONAL WEATHER SERVICE MILWAUKEE/SULLIVAN WI
400 AM CST THU JAN 29 2015

NOTE: "FAIR" INDICATES FEW OR NO CLOUDS BELOW 12,000 FEET WITH NO
SIGNIFICANT WEATHER AND/OR OBSTRUCTIONS TO VISIBILITY.

WIZ001-002-006>008-014>016-023>028-291100-
NORTHWEST WISCONSIN

CITY           SKY/WX    TMP DP  RH WIND       PRES   REMARKS
SUPERIOR ARPT  CLOUDY    32  26  78 N14G21    29.92R WCI  22
ASHLAND        CLOUDY    30  27  88 NW9       29.86R WCI  22
HAYWARD        CLOUDY    29  27  92 NW7       29.84R FOG     WCI  22
SIREN          CLOUDY    31  30  96 N9G17     29.90R WCI  23
CUMBERLAND     CLOUDY    30  28  93 NW13G18   29.86R FOG     WCI  20
RICE LAKE      CLOUDY    30  28  93 NW9       29.87R FOG     WCI  22
CHETEK         CLOUDY    29  28  96 W5        29.85R FOG     WCI  24
LADYSMITH      CLOUDY    28  27  97 NW7       29.83S FOG     WCI  21
EAU CLAIRE     CLOUDY    30  26  85 NW9       29.85R FOG     WCI  22
MENOMONIE      CLOUDY    31  29  94 W10       29.88R FOG     WCI  22
NEW RICHMOND   CLOUDY    31  31  99 NW12G17   29.90R FOG     WCI  22
OSCEOLA        CLOUDY    32  32 100 NW9G17    29.94R WCI  25
$$

WIZ003>005-009-010-017-018-291100-
NORTH CENTRAL WISCONSIN

CITY           SKY/WX    TMP DP  RH WIND       PRES   REMARKS
MANITOWISH WTR CLOUDY    25  25 100 NW6       29.76S FOG     WCI  18
ARBOR VITAE    CLOUDY    27  25  94 NW5       29.76S FOG     WCI  21
WOODRUFF       CLOUDY    27  25  94 NW5       29.76S FOG     WCI  21
RHINELANDER    CLOUDY    25  23  92 W5        29.76S FOG     WCI  19
EAGLE RIVER    CLOUDY    25  23  93 CALM      29.74F FOG
LAND O LAKES   CLOUDY    26  25  99 W3        29.75S FOG
PHILLIPS       CLOUDY    25  24  99 NW5       29.77F FOG     WCI  19
TOMAHAWK       CLOUDY    25  24  96 CALM      29.78R FOG
MEDFORD        CLOUDY    25  24  96 NW10      29.78S FOG     WCI  15
MERRILL        CLOUDY    26  26 100 NW3       29.78S FOG
$$

WIZ029-030-035-036-043>047-291100-
CENTRAL WISCONSIN

CITY           SKY/WX    TMP DP  RH WIND       PRES   REMARKS
WAUSAU         CLOUDY    26  25  96 NW6       29.76F FOG     WCI  19
MOSINEE        FOG       27  27 100 NW5       29.78S VSB 1   WCI  21
MARSHFIELD     CLOUDY    27  25  92 NW12      29.79R FOG     WCI  17
STEVENS POINT  CLOUDY    25  24  97 CALM      29.78F FOG
WAUPACA        CLOUDY    30  25  82 NW6       29.78S HAZE    WCI  24
WAUTOMA        CLOUDY    28  27  96 CALM      29.78F FOG
WISC RAPIDS    CLOUDY    27  24  89 NW5       29.80S FOG     WCI  22
CAMP DOUGLAS   CLOUDY    28  28 100 NW7       29.80S FOG     WCI  21
$$

WIZ011>013-019>022-031-037>040-048>050-291100-
NORTHEAST WISCONSIN

CITY           SKY/WX    TMP DP  RH WIND       PRES   REMARKS
ANTIGO         FOG       24  24  99 NW6       29.75F VSB 1   WCI  17
SHAWANO        CLOUDY    31  26  80 NW3       29.78S
OCONTO         CLOUDY    30  25  81 MISG      29.77F
STURGEON BAY   CLOUDY    32  25  74 W5        29.79S WCI  27
GREEN BAY      CLOUDY    30  25  81 CALM      29.77F HAZE
MANITOWOC      CLOUDY    31  30  96 NW3       29.76F
APPLETON       CLOUDY    30  23  74 NW6       29.76F WCI  24
CLINTONVILLE   CLOUDY    30  25  80 NW3       29.78S
OSHKOSH        CLOUDY    30  25  81 CALM      29.75F HAZE
$$

WIZ032>034-041-042-053>061-291100-
SOUTHWEST WISCONSIN

CITY           SKY/WX    TMP DP  RH WIND       PRES   REMARKS
LA CROSSE      CLOUDY    32  28  85 NW13      29.85R WCI  22
SPARTA         CLOUDY    29  29  99 NW8       29.84R FOG     WCI  21
VIROQUA        CLOUDY    30  30 100 NW14G21   29.79R WCI  19
BOSCOBEL       CLOUDY    34  29  82 N9        29.81R HAZE    WCI  27
PRAIRIE DU CHI CLOUDY    32  30  92 NW7       29.82R FOG     WCI  26
PLATTEVILLE    CLOUDY    32  31  94 NW12      29.76R WCI  23
$$

WIZ056-057-062-063-064-067-068-291100-
SOUTH CENTRAL WISCONSIN

CITY           SKY/WX    TMP DP  RH WIND       PRES   REMARKS
REEDSBURG      CLOUDY    29  28  96 NW7       29.77S FOG     WCI  22
BARABOO/DELLS  CLOUDY    29  28  94 NW5       29.76S FOG     WCI  24
LONE ROCK      CLOUDY    32  29  88 NW10      29.78R FOG     WCI  24
MINERAL POINT  CLOUDY    32  32 100 NW13      29.75R FOG     WCI  22
MADISON        CLOUDY    31  26  82 N5        29.74S WCI  26
MIDDLETON      CLOUDY    32  28  82 N5        29.74F WCI  28
WATERTOWN      CLOUDY    31  26  80 CALM      29.73S
MONROE         CLOUDY    32  30  93 N5        29.72S WCI  27
JANESVILLE     CLOUDY    34  28  80 N3        29.72S
$$

WIZ051-052-058>065-066-070>072-291100-
SOUTHEAST WISCONSIN

CITY           SKY/WX    TMP DP  RH WIND       PRES   REMARKS
MILWAUKEE      CLOUDY    33  26  75 CALM      29.73F
WAUKESHA       CLOUDY    30  25  80 CALM      29.73F
MILWAUKEE/TIMM CLOUDY    32  27  80 N3        29.74F
RACINE         CLOUDY    34  27  75 CALM      29.74F
BURLINGTON     CLOUDY    31  25  78 N3        29.72F
KENOSHA        MOCLDY    31  26  82 NE5       29.72F WCI  26
FOND DU LAC    CLOUDY    30  25  81 N5        29.74F WCI  25
SHEBOYGAN      CLOUDY    31  26  82 W5        29.75F WCI  26
WEST BEND      CLOUDY    32  25  74 CALM      29.73F
JUNEAU         CLOUDY    30  26  87 N3        29.75S
$$

LSZ147-162-291100-
LAKE SUPERIOR

STATION/POSITION TIME  TEMP    WIND        PRES    WAVE
                       AIR SEA DIR/SP/G            HT/PER
                 (UTC) (F)     (DEG/KT/KT) (MB)    (FT/S)
DEVILS ISLAND    1000   32     330/ 20/ 24 1011.7R
PORT WING        0900   32     290/ 12/ 15 1011.5R
SAXON HARBOR     0900   30     270/  3/  6 1010.2S
$$

LMZ867-665-643>646-291100-
LAKE MICHIGAN

STATION/POSITION TIME  TEMP    WIND        PRES    WAVE
                       AIR SEA DIR/SP/G            HT/PER
                 (UTC) (F)     (DEG/KT/KT) (MB)    (FT/S)
NORTHPORT PIER   0920   31     150/  4/  9 1008.8F
SISTER BAY       0943   31        CALM       N/A
KEWAUNEE LAKESHO 0900   31     250/  3/  7 1008.0F
SHEBOYGAN LAKESH 1000   35     210/  6/  7 1008.3F
PORT WASHINGTON  0900   34     180/  5/  7 1008.8
MILWAUKEE LAKESH 0900   33     160/  7/  8   N/A
KENOSHA   LAKESH 1000   33     170/  4/  5 1006.8F
$$

TC  - TEMPERATURE IN CELSIUS
VSB - VISIBILITY IN STATUTE MILES
WCI - WIND CHILL INDEX
HX  - HEAT INDEX




USA.gov is the U.S. government's official web portal to all federal, state and local government web resources and services.